TimePST,TemperatureF,Dew PointF,Humidity,Sea Level PressureIn,VisibilityMPH,Wind Direction,Wind SpeedMPH,Gust SpeedMPH,PrecipitationIn,Events,Conditions,WindDirDegrees,DateUTC
12:56 AM,45.0,32.9,63,30.25,10.0,North,5.8,-,N/A,,Clear,360,2013-02-17 08:56:00
1:56 AM,43.0,34.0,71,30.25,10.0,North,6.9,-,N/A,,Clear,360,2013-02-17 09:56:00
2:56 AM,45.0,31.1,58,30.25,10.0,Variable,5.8,-,N/A,,Clear,0,2013-02-17 10:56:00
3:56 AM,43.9,30.0,58,30.24,10.0,North,8.1,-,N/A,,Clear,360,2013-02-17 11:56:00
4:56 AM,43.0,30.0,60,30.23,10.0,NNE,10.4,-,N/A,,Clear,20,2013-02-17 12:56:00
5:56 AM,43.0,30.0,60,30.24,10.0,NNE,8.1,-,N/A,,Clear,20,2013-02-17 13:56:00
6:56 AM,43.0,30.0,60,30.22,10.0,NNE,10.4,-,N/A,,Clear,20,2013-02-17 14:56:00
7:56 AM,43.9,29.1,56,30.22,10.0,Variable,6.9,-,N/A,,Clear,0,2013-02-17 15:56:00
8:56 AM,45.9,30.0,54,30.22,10.0,NNW,8.1,-,N/A,,Clear,340,2013-02-17 16:56:00
9:56 AM,47.8,30.0,50,30.21,10.0,North,5.8,-,N/A,,Clear,350,2013-02-17 17:56:00
10:56 AM,48.9,34.0,56,30.19,10.0,NW,9.2,-,N/A,,Clear,320,2013-02-17 18:56:00
11:56 AM,50.0,36.0,59,30.17,10.0,NW,13.8,-,N/A,,Clear,320,2013-02-17 19:56:00
12:56 PM,50.9,36.9,59,30.14,10.0,North,12.7,-,N/A,,Clear,350,2013-02-17 20:56:00
1:56 PM,52.9,37.9,57,30.12,10.0,NNW,10.4,-,N/A,,Clear,330,2013-02-17 21:56:00
2:56 PM,52.9,39.9,61,30.10,9.0,NW,11.5,-,N/A,,Clear,320,2013-02-17 22:56:00
3:56 PM,50.9,39.9,66,30.09,9.0,NW,11.5,-,N/A,,Clear,320,2013-02-17 23:56:00
4:56 PM,50.0,41.0,71,30.08,8.0,NNW,5.8,-,N/A,,Clear,330,2013-02-18 00:56:00
5:56 PM,46.9,43.0,86,30.07,7.0,Calm,Calm,-,N/A,,Clear,0,2013-02-18 01:56:00
6:56 PM,43.9,43.0,97,30.08,8.0,Variable,3.5,-,N/A,,Clear,0,2013-02-18 02:56:00
7:56 PM,43.0,43.0,100,30.09,8.0,Calm,Calm,-,N/A,,Clear,0,2013-02-18 03:56:00
8:56 PM,39.9,39.9,100,30.09,8.0,NNE,3.5,-,N/A,,Clear,30,2013-02-18 04:56:00
9:56 PM,41.0,41.0,100,30.09,8.0,North,5.8,-,N/A,,Clear,350,2013-02-18 05:56:00
10:56 PM,38.8,38.8,100,30.09,7.0,Calm,Calm,-,N/A,,Clear,0,2013-02-18 06:56:00
11:56 PM,41.0,41.0,100,30.08,7.0,Calm,Calm,-,N/A,,Scattered Clouds,0,2013-02-18 07:56:00